Location: Agafa�
(31.2570°N, 8.7219°W)
Time: 06:30:06
(UTC+00:00)

Daily predictions for brighter satellites

Satellite Brightness Start Highest point End
(mag) Time Altitude Azimuth Time Altitude Azimuth Time Altitude Azimuth
H-2A ROCKET BODY 4.3 17:45:06 10° W 17:51:03 69° S 18:25:35 10° ESE
Cosmos 2026 Rocket 4.4 18:21:57 10° SSE 18:27:34 40° E 18:33:16 10° NNE
Cosmos 1602 Rocket 3.6 18:28:11 10° S 18:32:25 60° E 18:36:44 10° NNE
CZ-4B R/B 1.4 18:32:09 10° N 18:35:25 82° WNW 18:38:34 10° SSW
Cosmos 2278 Rocket 2.5 18:30:28 10° S 18:35:49 45° ESE 18:41:12 10° NE
YAOGAN 1 3.8 18:35:16 10° ESE 18:38:22 20° ENE 18:41:29 10° NNE
Hubble Space Telescope 1.9 18:34:50 10° W 18:38:44 42° SSW 18:42:39 10° ESE
H-2A R/B 4.1 18:35:50 10° NNW 18:39:35 29° WNW 18:43:16 10° SW
SMAP 4.4 18:35:29 10° S 18:39:54 44° W 18:44:21 10° NNW
SJ 16-02 3.9 18:37:08 10° WSW 18:40:29 21° WNW 18:43:51 10° NNW
CZ-4B R/B 4.0 18:35:41 10° S 18:41:07 60° WSW 18:46:41 10° NNW
Cosmos 1340 2.6 18:41:13 10° S 18:44:57 87° E 18:48:43 10° N
Okean O Rocket 2.6 18:40:46 10° S 18:45:06 54° W 18:49:26 10° NNW
Cosmos 1328 3.7 18:43:49 10° S 18:47:48 80° E 18:51:47 10° N
Cosmos 1825 Rocket 4.3 18:44:20 10° SSE 18:48:12 32° E 18:52:05 10° NNE
ERS-2 2.1 18:45:31 10° NNE 18:49:07 62° ESE 18:52:42 10° S
MOS 1 Rocket 3.1 18:45:37 10° NNE 18:49:55 90° NE 18:54:19 10° SSW
CZ-3B R/B 4.3 18:49:01 10° N 18:52:23 20° ENE 19:00:03 10° ESE
Cosmos 2112 Rocket 4.1 18:48:00 10° N 18:53:05 52° ENE 18:58:06 10° SSE
Okean-O 3.4 18:49:29 10° SE 18:53:21 30° ENE 18:57:15 10° N
BREEZE-M DEB (TANK) 1.7 18:51:09 10° NW 18:53:33 83° SW 18:56:04 10° SE
Helios 1A Rocket 4.1 18:52:54 10° ESE 18:56:06 22° ENE 18:59:20 10° NNE
CZ-2D R/B 3.1 18:53:57 10° SSE 18:57:47 76° ENE 19:01:37 10° N
Cosmos 1812 Rocket 3.5 18:55:02 10° N 18:59:20 58° E 19:03:35 10° SSE
Cosmos 1455 3.3 18:56:35 10° NNW 19:00:17 47° W 19:03:59 10° SSW
CZ-2C R/B 3.1 18:56:17 10° SSE 19:01:33 74° ENE 19:07:08 10° N
Meteor 1-11 4.2 18:57:05 10° S 19:02:45 69° E 19:08:21 10° NNE
ARGOS 3.9 18:58:27 10° SE 19:02:54 28° ENE 19:07:22 10° NNE
Cosmos 1428 Rocket 4.5 18:58:01 10° S 19:04:17 85° E 19:10:37 10° N
USA 267 4.3 19:00:49 15° ENE 19:04:40 26° ESE 19:09:56 10° S
USA 229 DEB 4.4 18:58:07 10° NNW 19:04:54 36° NE 19:11:54 10° ESE
USA 229 4.5 18:58:14 10° NNW 19:04:59 36° NE 19:11:58 10° ESE
EXPRESS MD2 3.5 18:58:38 10° NW 19:05:09 79° NE 19:08:11 12° SE
Cosmos 1939 Rocket 3.9 19:01:24 10° S 19:05:24 50° W 19:09:22 10° NNW
Cosmos 1953 Rocket 3.9 19:09:16 10° SSE 19:13:20 40° E 19:16:54 13° NNE
SAR-Lupe-4 3.8 19:10:47 10° N 19:14:21 72° WNW 19:17:53 10° SSW
Lacrosse 5 2.8 19:10:13 10° NW 19:15:05 50° WSW 19:19:55 10° SSE
USA 276 3.1 19:14:25 10° SSW 19:17:13 29° SE 19:17:26 29° ESE
CZ-2C R/B 3.0 19:15:20 10° NNE 19:20:41 45° E 19:26:01 10° S
CZ-4 R/B 1.5 19:26:15 10° S 19:30:20 77° WSW 19:34:22 10° NNW
CSL-04 Debris 4.2 19:25:37 10° SSE 19:30:48 51° ENE 19:35:59 10° N
Iridium 4 Rocket 3.6 19:26:05 10° N 19:31:19 71° W 19:36:02 10° S
Cosmos 405 3.1 19:30:09 10° NNW 19:33:40 73° W 19:37:09 10° S
SJ-11-01 4.1 19:29:04 10° SSE 19:33:44 76° ENE 19:38:24 10° N
Aureole 3 Rocket 3.1 19:30:40 10° NNW 19:34:09 68° W 19:38:44 10° S
SWARM C 4.4 19:32:33 10° S 19:35:51 89° W 19:37:02 38° N
SWARM A 4.2 19:32:40 10° S 19:35:58 82° W 19:37:39 27° N
BREEZE-M DEB (TANK) 3.2 19:35:06 10° SSW 19:36:50 24° S 19:36:50 24° S
DMSP B5D2-2 4.2 19:41:31 41° ENE 19:42:44 48° E 19:47:47 10° S
Cosmos 2292 Rocket 3.9 19:38:38 10° S 19:44:39 87° E 19:48:06 18° N
Centaur D-1AR AC-48 3.3 19:35:58 10° WSW 19:45:05 35° S 19:47:00 24° SE
Cosmos 1833 Rocket 2.6 19:40:03 10° NNW 19:45:35 59° ENE 19:48:30 28° SE
Cosmos 2150 Rocket 3.8 19:42:26 10° SSW 19:47:34 82° ESE 19:49:57 33° NNE
In-Cosmos 22 Rocket 4.1 19:44:01 10° S 19:49:48 73° E 19:54:19 17° NNE
Meteor 1-27 4.0 19:46:01 10° N 19:51:36 75° E 19:57:08 10° SSE
COSMOS 2406 3.1 19:49:03 10° NNW 19:54:51 85° ENE 20:00:35 10° SSE
ASTRO E2 3.8 19:55:14 10° SW 19:58:09 36° SSW 19:58:09 36° SSW
Cosmos 1943 Rocket 3.7 19:56:14 10° SSE 19:58:09 20° SSE 19:58:09 20° SSE
Cosmos 2082 Rocket 3.5 19:55:51 10° N 19:58:32 26° NNE 19:58:32 26° NNE
Cosmos-2242 4.1 19:59:06 10° NNW 20:03:12 45° W 20:07:19 10° SSW
H-2A R/B 3.1 20:01:13 10° S 20:05:55 43° W 20:10:46 10° NNW
Cosmos 2266 Rocket 3.8 19:59:57 10° S 20:06:16 83° E 20:10:48 20° N
CSL-04 Rocket 4.0 20:09:04 10° S 20:14:23 64° WSW 20:19:49 10° NNW
Cosmos 1125 Rocket 3.6 20:12:52 10° SSW 20:18:03 70° WNW 20:18:15 69° NW
Hubble Space Telescope 3.2 20:16:49 10° WSW 20:19:25 17° SSW 20:19:25 17° SSW
Cosmos 2278 Rocket 4.5 20:15:59 10° WSW 20:20:04 20° WNW 20:24:10 10° NNW
Sakura Rocket 4.1 20:26:04 10° W 20:32:20 61° SW 20:32:20 61° SW
Milstar 3 3.2 20:31:55 10° WSW 20:39:53 53° S 20:39:53 53° S
USA 267 3.5 20:48:11 65° WNW 20:48:11 65° WNW 20:54:19 10° SW
